Flag for Latvia Weather past 2 weeks in Jelgava, Latvia

Now
37 °F

Fog.


Feels Like: 30 °F
Forecast: 35 / 42 °F
Wind: 10 mph from South

Location: Riga Airport

Current Time: Mar 1, 2015 at 9:47:16 AM

Latest Report: Mar 1, 2015 at 9:20 AM


Visibility: 2 mi

Pressure: 29.92 "Hg

Humidity: 100%

Dew point: 37 °F

Location of JelgavaLocation

Historic Weather in Jelgava — Graph

°F

Jelgava temperature yesterday

Maximum temperature yesterday: 37 °F (at 2:50 PM)
Minimum temperature yesterday: 34 °F (at 12:20 AM)
Average temperature yesterday: 35 °F

Past Weeks' High & Low Weather Summary

 TemperatureHumidityPressure
High45 °F (Feb 21, 2:20 PM)100% (Feb 14, 8:20 AM)30.80 "Hg (Feb 14, 8:20 AM)
Low16 °F (Feb 16, 7:50 AM)32% (Feb 17, 2:20 PM)29.45 "Hg (Feb 21, 8:20 PM)
Average34 °F85%30.06 "Hg
* Reported Feb 14 8:20 AM — Mar 1 8:20 AM, Jelgava, Weather by CustomWeather, © 2015

Note: Actual official high and low records may vary slightly from our data, if they occured in-between our weather recording intervals... More about our weather records

Advertising

Jelgava weather history for previous 24 hours

 ConditionsComfort  
Time TempWeatherWind HumidityBarometerVisibility
8:20 AM
Sun, Mar 1
37 °FFog.9 mph100%29.92 "Hg2 mi
7:50 AM37 °FFog.10 mph93%29.92 "Hg3 mi
7:20 AM37 °FLow clouds.9 mph93%29.92 "Hg4 mi
6:50 AM36 °FMostly cloudy.8 mph100%29.92 "Hg5 mi
6:20 AM36 °FMostly cloudy.9 mph100%29.92 "Hg6 mi
5:20 AM36 °FPassing clouds.7 mph100%29.95 "Hg6 mi
4:50 AM36 °FOvercast.7 mph100%29.95 "Hg6 mi
4:20 AM36 °FOvercast.6 mph100%29.95 "Hg6 mi
3:50 AM36 °FOvercast.7 mph100%29.98 "Hg6 mi
3:20 AM36 °FOvercast.8 mph100%29.98 "Hg6 mi
2:50 AM36 °FOvercast.7 mph100%29.98 "HgN/A
2:20 AM36 °FMostly cloudy.7 mph100%29.98 "HgN/A
1:50 AM36 °FMostly cloudy.6 mph93%29.98 "HgN/A
1:20 AM36 °FMostly cloudy.5 mph93%29.98 "HgN/A
12:50 AM34 °FPassing clouds.6 mph100%29.98 "HgN/A
12:20 AM34 °FPassing clouds.6 mph100%29.98 "HgN/A
11:50 PM
Sat, Feb 28
34 °FPassing clouds.6 mph100%30.01 "HgN/A
11:20 PM36 °FMostly cloudy.7 mph93%30.01 "HgN/A
10:50 PM36 °FOvercast.6 mph93%30.01 "HgN/A
10:20 PM34 °FOvercast.6 mph100%30.01 "HgN/A
9:50 PM34 °FOvercast.5 mph100%30.01 "HgN/A
9:20 PM34 °FOvercast.3 mph100%30.01 "HgN/A
8:50 PM36 °FOvercast.6 mph93%30.01 "HgN/A
8:20 PM36 °FOvercast.6 mph93%30.01 "HgN/A
7:50 PM36 °FOvercast.3 mph93%30.01 "HgN/A
7:20 PM36 °FOvercast.5 mph93%30.01 "HgN/A
6:50 PM36 °FOvercast.3 mph93%30.01 "HgN/A
6:20 PM36 °FMostly cloudy.1 mph93%30.01 "HgN/A
5:50 PM36 °FOvercast.No wind93%30.01 "HgN/A
5:20 PM36 °FMore clouds than sun.No wind93%30.01 "HgN/A
4:50 PM37 °FMore clouds than sun.1 mph87%30.01 "HgN/A
4:20 PM37 °FOvercast.1 mph87%30.01 "HgN/A
3:50 PM37 °FMostly cloudy.2 mph87%30.01 "HgN/A
3:20 PM37 °FCloudy.2 mph87%30.01 "HgN/A
2:50 PM37 °FMostly cloudy.3 mph87%30.01 "HgN/A
2:20 PM36 °FMostly cloudy.3 mph93%30.01 "HgN/A
1:50 PM36 °FLow clouds.2 mph100%30.01 "HgN/A
1:20 PM36 °FLow clouds.2 mph100%30.01 "HgN/A
12:50 PM36 °FLow clouds.3 mph100%30.01 "Hg6 mi
12:20 PM36 °FLow clouds.3 mph100%30.01 "Hg6 mi
11:50 AM36 °FLow clouds.5 mph100%30.01 "Hg5 mi
11:20 AM36 °FLow clouds.5 mph100%30.01 "Hg4 mi
10:50 AM34 °FFog.5 mph100%30.01 "Hg1 mi
10:20 AM34 °FChilly.5 mph100%29.98 "Hg1 mi
9:50 AM34 °FChilly.5 mph100%30.01 "Hg1 mi
9:20 AM34 °FChilly.5 mph100%29.98 "Hg1 mi
Weather by CustomWeather, © 2015

See weather overviewHow to use our weather pages